SCP
0 0 0 0 0 0 0 0 0 0 0 0 0 0 0 0 0 0 0 0 0 0 0 0 0 0 0 0 0 0 0 0 0 0 0 0 0 0 0 0 0 0 0
0 0 0 0 0 0 0 0 0 0 0 0 0 0 0 0 0 0 0 0 0 0 0 0 0 0 0 0 0 0 0 0 0 0 0 0 0 0 0 0 0 0 0
0 0 0 0 0 0 0 0 0 0 0 0 0 0 0 0 0 0 0 0 0 0 0 0 0 0 0 0 0 0 0 0 0 0 0 0 0 0 0 0 0 0 0
0 0 0 0 0 0 0 0 0 0 0 0 0 0 0 0 0 0 0 0 0 0 0 0 0 0 0 0 0 0 0 0 0 0 0 0 0 0 0 0 0 0 0
0 0 0 0 0 0 0 0 0 0 0 0 0 0 0 0 0 0 0 0 0 0 0 0 0 0 0 0 0 0 0 0 0 0 0 0 0 0 0 0 0 0 0
0 0 0 0 0 0 0 0 0 0 0 0 0 0 0 0 0 0 0 0 0 0 0 0 0 0 0 0 0 0 0 0 0 0 0 0 0 0 0 0 0 0 0
0 0 0 0 0 0 0 0 0 0 0 0 0 0 0 0 0 0 0 0 0 0 0 0 0 0 0 0 0 0 0 0 0 0 0 0 0 0 0 0 0 0 0
0 0 0 0 0 0 0 0 0 0 0 0 0 0 0 0 0 0 0 0 0 0 0 0 0 0 0 0 0 0 0 0 0 0 0 0 0 0 0 0 0 0 0
0 0 0 0 0 0 0 0 0 0 0 0 0 0 0 0 0 0 0 0 0 0 0 0 0 0 0 0 0 0 0 0 0 0 0 0 0 0 0 0 0 0 0
0 0 0 0 0 0 0 0 0 0 0 0 0 0 0 0 0 0 0 0 0 0 0 0 0 0 0 0 0 0 0 0 0 0 0 0 0 0 0 0 0 0 0
0 0 0 0 0 0 0 0 0 0 0 0 0 0 0 0 0 0 0 0 0 0 0 0 0 0 0 0 0 0 0 0 0 0 0 0 0 0 0 0 0 0 0
0 0 0 0 0 0 0 0 0 0 0 0 0 0 0 0 0 0 0 0 0 0 0 0 0 0 0 0 0 0 0 0 0 0 0 0 0 0 0 0 0 0 0
0 0 0 0 0 0 0 0 0 0 0 0 0 0 0 0 0 0 0 0 0 0 0 0 0 0 0 0 0 0 0 0 0 0 0 0 0 0 0 0 0 0 0
0 0 0 0 0 0 0 0 0 0 0 0 0 0 0 0 0 0 0 0 0 0 0 0 0 0 0 0 0 0 0 0 0 0 0 0 0 0 0 0 0 0 0
0 0 0 0 0 0 0 0 0 0 0 0 0 0 0 0 0 0 0 0 0 0 0 0 0 0 0 0 0 0 0 0 0 0 0 0 0 0 0 0 0 0 0
0 0 0 0 0 0 0 0 0 0 0 0 0 0 0 0 0 0 0 0 0 0 0 0 0 0 0 0 0 0 0 0 0 0 0 0 0 0 0 0 0 0 0
0 0 0 0 0 0 0 0 0 0 0 0 0 0 0 0 0 0 0 0 0 0 0 0 0 0 0 0 0 0 0 0 0 0 0 0 0 0 0 0 0 0 0
0 0 0 0 0 0 0 0 0 0 0 0 0 0 0 0 0 0 0 0 0 0 0 0 0 0 0 0 0 0 0 0 0 0 0 0 0 0 0 0 0 0 0
0 0 0 0 0 0 0 0 0 0 0 0 0 0 0 0 0 0 0 0 0 0 0 0 0 0 0 0 0 0 0 0 0 0 0 0 0 0 0 0 0 0 0
0 0 0 0 0 0 0 0 0 0 0 0 0 0 0 0 0 0 0 0 0 0 0 0 0 0 0 0 0 0 0 0 0 0 0 0 0 0 0 0 0 0 0
0 0 0 0 0 0 0 0 0 0 0 0 0 0 0 0 0 0 0 0 0 0 0 0 0 0 0 0 0 0 0 0 0 0 0 0 0 0 0 0 0 0 0
0 0 0 0 0 0 0 0 0 0 0 0 0 0 0 0 0 0 0 0 0 0 0 0 0 0 0 0 0 0 0 0 0 0 0 0 0 0 0 0 0 0 0
0 0 0 0 0 0 0 0 0 0 0 0 0 0 0 0 0 0 0 0 0 0 0 0 0 0 0 0 0 0 0 0 0 0 0 0 0 0 0 0 0 0 0
0 0 0 0 0 0 0 0 0 0 0 0 0 0 0 0 0 0 0 0 0 0 0 0 0 0 0 0 0 0 0 0 0 0 0 0 0 0 0 0 0 0 0
0 0 0 0 0 0 0 0 0 0 0 0 0 0 0 0 0 0 0 0 0 0 0 0 0 0 0 0 0 0 0 0 0 0 0 0 0 0 0 0 0 0 0
0 0 0 0 0 0 0 0 0 0 0 0 0 0 0 0 0 0 0 0 0 0 0 0 0 0 0 0 0 0 0 0 0 0 0 0 0 0 0 0 0 0 0
Wind_Speed
2 2 2 1 1 1 1 1 1 1 0 0 0 0 1 1 1 1 1 1 2 2 2 2 3 3 2 2 2 2 3 3 6 6 4 4 4 4 4 4 4 4 5
2 2 2 1 1 1 1 1 1 1 1 1 1 1 1 1 1 1 2 2 2 3 2 2 3 2 3 3 3 4 4 4 5 8 5 4 5 4 4 5 4 4 4
2 2 2 2 2 2 2 1 1 1 1 1 1 1 2 1 2 2 2 2 3 3 3 3 3 3 4 3 3 4 3 4 4 5 6 4 4 3 4 4 4 4 5
2 3 2 2 2 2 2 1 1 1 1 1 2 2 2 2 2 2 2 2 2 2 2 3 3 3 4 4 3 4 3 3 3 4 5 4 4 3 3 4 5 4 5
3 3 3 2 2 1 1 1 1 1 2 2 2 2 2 2 2 2 3 2 2 2 2 3 3 3 5 4 3 3 3 3 3 4 5 5 4 3 3 3 5 5 5
3 3 2 2 2 2 2 1 1 1 1 1 2 2 2 2 4 4 3 2 2 2 3 3 3 3 4 6 7 6 5 4 5 4 4 6 7 5 4 4 4 5 5
3 3 2 2 2 2 2 1 2 2 2 2 2 2 2 3 5 4 4 1 2 2 2 2 3 3 3 3 6 7 6 8 7 5 6 7 7 5 4 5 5 5 6
3 3 3 3 3 2 2 2 2 1 2 2 2 2 2 3 5 5 4 2 2 2 2 3 3 3 3 4 3 3 4 5 6 5 5 6 6 5 4 5 5 5 5
3 3 3 3 3 2 3 3 2 1 2 2 1 2 2 3 4 5 4 1 2 3 3 3 3 3 6 7 4 4 5 5 6 7 8 8 8 8 5 2 3 3 5
4 3 3 3 3 3 3 2 1 1 2 1 2 2 2 3 4 5 4 1 2 3 3 2 3 5 7 6 3 3 5 5 4 4 5 6 5 5 6 4 3 4 4
2 2 2 2 3 3 2 1 1 1 1 1 2 2 2 3 5 5 5 2 3 3 3 3 3 7 7 7 5 3 6 6 3 3 3 3 3 3 3 3 3 4 5
2 2 2 2 2 1 1 1 1 1 2 2 2 2 2 2 3 5 6 5 4 3 3 3 4 7 7 7 5 6 7 6 2 2 3 3 3 4 3 4 4 4 6
1 2 2 1 1 1 2 2 1 1 2 2 2 3 3 2 3 6 6 7 7 4 3 5 6 7 6 4 5 6 4 2 2 3 3 4 3 4 4 4 4 4 5
2 1 1 1 1 1 1 2 2 2 2 3 3 3 3 3 3 3 3 3 5 4 3 3 5 5 4 3 3 3 2 2 2 3 4 4 3 3 3 4 4 4 4
2 1 1 1 1 1 1 2 3 3 4 4 3 3 3 4 5 6 4 3 3 3 1 1 1 1 2 2 2 2 2 2 2 3 3 4 4 4 4 3 4 4 4
2 1 1 1 1 1 1 2 4 4 5 6 6 4 4 6 8 7 7 7 6 3 0 1 2 3 3 3 3 3 3 3 3 3 3 4 4 4 5 4 3 4 5
2 2 1 1 1 1 1 1 2 3 4 5 6 7 7 8 8 7 7 6 5 2 1 3 3 4 4 3 3 4 4 4 3 3 4 4 4 4 4 4 4 4 5
1 1 1 1 2 2 2 2 2 2 3 3 4 7 8 8 8 7 6 3 3 2 3 4 4 4 4 4 4 4 4 4 3 4 4 4 4 4 4 5 5 5 5
1 1 1 1 1 1 2 2 2 3 3 3 3 4 5 6 6 6 3 2 3 4 4 4 4 4 4 4 4 4 4 4 5 4 5 5 4 4 5 5 5 6 6
1 1 1 1 1 1 1 2 2 3 3 3 4 4 3 2 2 3 3 3 4 4 4 5 5 5 4 4 4 4 4 5 5 5 5 5 4 5 6 6 6 5 5
1 1 2 1 2 2 2 3 3 3 4 4 5 5 6 3 4 4 4 4 4 5 5 5 5 5 4 4 4 5 5 5 5 5 5 5 5 5 5 5 5 5 5
2 2 2 2 2 2 3 3 3 4 4 5 5 5 7 4 4 5 5 5 5 5 4 4 5 5 4 5 5 5 5 6 5 5 5 5 4 5 5 5 5 5 5
2 2 2 2 2 3 3 3 3 4 4 4 4 4 4 4 5 5 5 5 5 4 4 4 5 5 5 4 5 5 6 7 6 6 6 5 5 5 5 5 6 6 6
3 3 3 2 2 3 3 4 4 4 4 4 4 5 5 5 5 6 5 5 5 5 4 4 5 7 8 6 5 5 6 6 6 6 7 7 6 5 5 5 6 7 6
3 3 3 3 3 3 4 4 4 4 5 5 5 5 5 5 5 5 5 4 5 5 6 5 5 6 8 9 8 7 9 11 9 6 6 6 7 7 6 6 6 6 6
3 3 3 3 3 4 4 4 5 5 5 5 5 5 5 5 5 5 4 4 4 5 5 5 6 7 8 8 9 10 10 11 10 9 6 5 6 6 6 5 7 6 6
Wind_Direction
187 189 187 180 179 179 192 219 210 186 138 218 234 213 235 228 210 208 231 229 244 264 260 249 257 259 257 256 252 252 250 247 264 281 276 288 287 287 297 289 282 283 289
185 173 183 178 158 173 216 231 197 196 193 196 191 213 247 253 240 240 254 247 240 252 262 266 271 265 254 251 245 247 248 246 255 279 288 291 285 287 290 290 292 290 288
168 168 176 180 183 206 223 226 204 210 223 213 188 218 240 252 246 242 245 250 250 252 254 254 267 271 269 267 260 259 257 257 251 263 282 288 286 293 297 294 292 290 292
173 174 188 204 208 216 216 206 210 211 218 234 232 233 235 240 240 242 249 250 247 259 265 261 264 261 266 271 268 268 267 266 261 263 277 287 286 289 290 297 305 299 299
178 188 211 215 207 198 203 208 204 211 223 229 232 249 252 241 241 247 247 246 244 260 269 269 269 266 269 276 278 278 270 268 271 272 278 288 288 295 292 298 297 307 301
188 207 210 197 195 203 212 208 204 219 227 225 232 240 252 260 271 265 263 248 248 256 272 283 283 276 279 292 289 283 278 273 274 272 275 277 283 285 289 287 294 303 303
198 210 203 198 202 213 212 201 215 224 224 232 244 244 259 275 283 281 274 271 256 257 263 281 291 297 289 287 289 291 288 283 277 273 270 272 278 280 281 281 280 284 281
199 208 205 202 211 206 201 218 228 227 226 239 251 246 262 278 283 283 283 273 262 263 262 267 278 292 292 295 291 289 289 289 288 283 274 277 278 281 266 266 270 281 285
205 214 210 201 203 201 216 230 231 224 234 240 257 243 258 280 285 286 287 281 274 274 273 274 278 282 294 305 306 296 301 297 298 293 291 295 298 300 301 298 288 291 292
222 222 208 194 199 209 222 228 232 224 234 240 262 256 258 276 284 283 279 278 276 282 287 279 271 283 296 306 299 287 291 296 306 311 305 306 307 305 303 283 270 274 287
221 203 197 199 208 209 208 210 204 213 234 245 263 277 270 271 282 280 276 272 264 278 283 284 278 288 295 301 300 283 286 301 306 301 303 310 314 309 305 295 279 265 268
179 184 199 207 209 191 185 211 199 200 222 246 266 284 281 278 280 282 281 278 283 271 274 280 281 290 295 300 303 302 305 310 306 298 299 301 303 302 301 298 288 276 266
157 196 209 198 196 183 186 200 203 204 225 250 257 269 285 285 280 281 281 281 284 279 274 283 293 298 304 305 309 314 319 314 304 296 293 295 300 298 300 298 292 285 281
176 201 201 192 200 197 195 197 206 217 227 238 249 261 276 281 276 278 273 274 276 275 285 292 294 295 299 307 311 307 301 291 282 281 288 293 298 295 293 299 299 304 300
181 192 199 202 200 218 233 227 228 230 224 231 237 240 253 268 273 278 283 274 266 270 315 325 312 309 297 299 298 290 287 288 281 279 282 288 289 290 290 292 290 292 281
187 205 208 206 206 217 251 289 262 255 261 256 257 259 263 271 287 282 282 286 289 295 337 248 257 257 261 268 275 280 276 272 273 276 275 276 280 285 290 290 282 278 282
200 211 206 205 210 217 228 247 287 298 275 270 271 271 272 281 284 285 287 289 287 276 228 250 256 259 263 265 265 266 269 269 267 265 266 268 272 276 280 284 282 278 279
198 215 213 221 224 224 230 240 246 262 287 294 291 286 287 289 289 289 290 294 284 267 243 249 256 259 260 260 261 266 271 271 263 262 262 261 260 265 269 271 271 271 277
182 213 224 235 239 238 237 242 248 251 262 278 299 301 296 295 294 291 294 238 251 259 256 256 257 259 262 261 261 261 262 265 265 264 261 256 253 255 260 262 265 266 268
195 212 208 213 229 238 240 242 248 251 257 264 269 278 294 292 277 278 257 243 245 254 257 258 259 257 258 258 258 257 260 262 263 261 262 262 258 254 259 262 261 262 265
190 201 199 207 224 230 234 239 245 247 252 259 262 264 269 257 257 260 258 251 248 252 256 259 261 260 257 256 255 254 256 260 260 260 262 261 258 259 259 258 259 259 263
187 199 203 214 225 230 237 241 245 248 254 260 272 276 276 264 257 258 257 256 254 252 251 254 259 257 252 249 249 253 256 258 257 255 258 261 261 261 260 258 256 258 258
191 201 218 233 234 238 244 244 246 249 255 259 266 272 270 261 258 259 261 263 262 260 254 248 254 259 255 249 245 243 248 251 249 247 253 259 260 258 257 258 257 258 258
200 206 218 230 237 239 245 251 252 253 255 259 261 261 262 264 266 267 266 268 267 265 259 252 251 255 257 259 257 251 249 252 249 245 242 247 252 253 254 256 258 256 258
203 210 219 225 232 242 250 255 256 257 259 261 262 264 265 266 267 268 270 270 269 268 266 261 258 256 256 257 259 260 260 261 258 249 240 240 244 246 248 253 256 259 260
213 219 226 229 233 239 245 252 258 260 261 263 264 264 266 267 268 269 269 268 269 270 270 267 262 261 263 264 262 263 262 261 256 248 239 236 238 244 244 252 252 253 257